Location: Glencoe Junction
(41.7313°N, 110.5602°W)
Time: 15:53:38
(UTC+00:00)

Tiangong - Visible Passes

Search period start: 22 January 2022 00:00
Search period end: 01 February 2022 00:00
Orbit: 383 x 386 km, 41.5° (Epoch: 22 January)

Date Brightness Start Highest point End Pass type
(mag) Time Alt. Az. Time Alt. Az. Time Alt. Az.
26 Jan 3.6 02:26:09 10° SSW 02:27:02 15° S 02:27:02 15° S visible
27 Jan 3.5 01:27:39 10° S 01:29:01 12° SSE 01:30:21 10° ESE visible
27 Jan 4.4 03:02:18 10° WSW 03:02:34 12° SW 03:02:34 12° SW visible
28 Jan 2.2 02:02:48 10° SW 02:05:40 31° SSE 02:05:48 31° SSE visible
29 Jan 3.0 01:03:35 10° SSW 01:06:00 20° SSE 01:08:25 10° ESE visible
29 Jan 2.9 02:39:22 10° WSW 02:41:10 30° WSW 02:41:10 30° WSW visible
30 Jan 1.6 01:39:38 10° WSW 01:42:43 47° SSE 01:44:15 24° E visible
30 Jan 4.7 03:16:16 10° W 03:16:27 11° W 03:16:27 11° W visible
31 Jan 1.0 02:16:24 10° W 02:19:30 80° SSW 02:19:30 80° SSW visible
